Location: Remedello Sotto
(45.2500°N, 10.3667°E)
Time: 11:13:59
(UTC+00:00)

Cosmos 1606 Rocket - Pass Details

Date: 03 February 2023
Orbit: 602 x 629 km, 82.5° (Epoch: 31 March)

Event Time Altitude Azimuth Distance (km) Brightness Sun altitude
Rises 16:51:49 0° 1° (N) 2,866 6.8 -4.7°
Reaches altitude 10° 16:54:18 10° 13° (NNE) 1,959 5.8 -5.1°
Maximum altitude 16:58:03 28° 73° (ENE) 1,144 4.4 -5.8°
Drops below altitude 10° 17:01:47 10° 133° (SE) 1,951 5.8 -6.4°
Sets 17:04:14 0° 145° (SE) 2,853 6.8 -6.8°
